Location: Molveno
(46.1500°N, 10.9667°E)
Time: 08:01:43
(UTC+00:00)

BREEZE M DEB (TANK) - Pass Details

Date: 05 July 2020
Orbit: 285 x 14546 km, 49.5° (Epoch: 05 August)

Event Time Altitude Azimuth Distance (km) Brightness Sun altitude
Rises 21:20:20 0° 289° (WNW) 2,398 6.9 -16.0°
Reaches altitude 10° 21:22:41 10° 276° (W) 1,212 5.0 -16.1°
Enters shadow 21:24:10 25° 238° (WSW) 638 3.1 -16.3°
